Powrót do katalogu

FENGYUN 1C DEB

LostSSO
NORAD 31334·DEBRIS·🇨🇳 China

Wystrzelony May 10, 1999 z Taiyuan Satellite Launch Center

Loading…

Następne Przeloty (najbliższe 24 godziny)

TLE

NieaktualneSource: Space-Track

Epoka: Nov 29, 2023, 11:37 UTC

1 31334U 99025BQN 23333.48431973  .00008913  00000-0  40860-2 0  9993
2 31334  99.0739  66.4636 0072397 324.0789  35.5531 14.20165200853262

Śledź FENGYUN 1C DEB w czasie rzeczywistym z AllMySat

Download on the App Store